This demonstration page uses our WeatherBlox Daily Observations layout. Learn more.

Hourly Observations for August 28, 2015

Temp ( °F °C ) Dew Point ( °F °C ) Humidity (%) Winds ( mph kmh ) Pressure ( in mb ) Visibility ( mi km ) Precip ( " mm )
12:15 am 00:15 Clear 73 23 64 18 74 74 W 7 11 29.77 1008 10 16.09344 0 0
12:35 am 00:35 Mostly Cloudy 72 22 64 18 78 78 Calm 29.77 1008 10 16.09344 0 0
12:55 am 00:55 Partly Cloudy 72 22 64 18 78 78 SW 3 6 29.77 1008 10 16.09344 0 0
1:15 am 01:15 Clear 70 21 64 18 83 83 SSW 3 6 29.8 1009 10 16.09344 0 0
1:35 am 01:35 Clear 70 21 64 18 83 83 S 7 11 29.8 1009 10 16.09344 0 0
1:55 am 01:55 Clear 70 21 64 18 83 83 WNW 5 7 29.8 1009 10 16.09344 0 0
2:15 am 02:15 Clear 68 20 64 18 88 88 Calm 29.8 1009 10 16.09344 0 0
2:35 am 02:35 Clear 68 20 64 18 88 88 WNW 3 6 29.77 1008 10 16.09344 0 0
2:55 am 02:55 Clear 66 19 64 18 94 94 WNW 6 9 29.77 1008 10 16.09344 0 0
3:15 am 03:15 Clear 68 20 66 19 94 94 WNW 6 9 29.77 1008 7 11.265408 0 0
3:35 am 03:35 Clear 68 20 66 19 94 94 W 6 9 29.77 1008 7 11.265408 0 0
3:55 am 03:55 Clear 68 20 66 19 94 94 WNW 5 7 29.77 1008 7 11.265408 0 0
4:15 am 04:15 Clear with Mist and Fog 68 20 66 19 94 94 W 6 9 29.77 1008 5 8.04672 0 0
4:35 am 04:35 Clear with Mist and Fog 68 20 64 18 88 88 W 5 7 29.77 1008 5 8.04672 0 0
4:55 am 04:55 Mostly Cloudy with Mist and Fog 68 20 66 19 94 94 W 6 9 29.8 1009 5 8.04672 0 0
5:15 am 05:15 Cloudy 68 20 66 19 94 94 WNW 6 9 29.8 1009 7 11.265408 0 0
5:35 am 05:35 Cloudy 68 20 66 19 94 94 NW 7 11 29.8 1009 7 11.265408 0 0
5:55 am 05:55 Cloudy 68 20 66 19 94 94 NW 9 15 29.8 1009 7 11.265408 0 0
6:15 am 06:15 Cloudy 68 20 64 18 88 88 NW 6 9 29.8 1009 7 11.265408 0 0
6:35 am 06:35 Partly Cloudy 68 20 64 18 88 88 NW 7 11 29.8 1009 7 11.265408 0 0
6:55 am 06:55 Mostly Cloudy 68 20 64 18 88 88 NW 9 15 29.8 1009 7 11.265408 0 0
7:15 am 07:15 Cloudy 68 20 64 18 88 88 NW 6 9 29.8 1009 7 11.265408 0 0
7:35 am 07:35 Cloudy with Mist and Fog 68 20 66 19 94 94 NNW 6 9 29.83 1010 5 8.04672 0 0
7:55 am 07:55 Cloudy 68 20 66 19 94 94 NNW 9 15 29.83 1010 7 11.265408 0 0
8:15 am 08:15 Cloudy with Mist and Fog 68 20 66 19 94 94 NW 9 15 29.83 1010 5 8.04672 0 0
8:35 am 08:35 Cloudy 68 20 66 19 94 94 NNW 8 13 29.83 1010 7 11.265408 0 0
8:55 am 08:55 Cloudy 68 20 64 18 88 88 NW 9 15 29.85 1011 10 16.09344 0 0
9:15 am 09:15 Cloudy 68 20 64 18 88 88 NW 6 9 29.85 1011 10 16.09344 0 0
9:35 am 09:35 Cloudy 70 21 64 18 83 83 NW 6 9 29.85 1011 10 16.09344 0 0
9:55 am 09:55 Mostly Cloudy 70 21 64 18 83 83 NW 6 9 29.85 1011 10 16.09344 0 0
10:15 am 10:15 Cloudy 70 21 64 18 83 83 NNW 7 11 29.85 1011 10 16.09344 0 0
10:35 am 10:35 Cloudy 72 22 64 18 78 78 N 10 17 29.88 1012 10 16.09344 0 0
10:55 am 10:55 Cloudy 70 21 64 18 83 83 NNW 7 11 29.88 1012 10 16.09344 0 0
11:15 am 11:15 Mostly Cloudy 72 22 64 18 78 78 NNW 8 13 29.88 1012 10 16.09344 0 0
11:35 am 11:35 Cloudy 72 22 64 18 78 78 NNW 5 7 29.88 1012 10 16.09344 0 0
11:55 am 11:55 Cloudy 73 23 64 18 74 74 N 3 6 29.85 1011 10 16.09344 0 0
12:15 pm 12:15 Cloudy 73 23 64 18 74 74 NNW 6 9 29.85 1011 10 16.09344 0 0
12:35 pm 12:35 Cloudy 73 23 64 18 74 74 NW 6 9 29.85 1011 10 16.09344 0 0
12:55 pm 12:55 Cloudy 73 23 64 18 74 74 NNW 12 19 29.85 1011 10 16.09344 0 0
1:15 pm 13:15 Cloudy 75 24 64 18 69 69 NNW 9 15 29.85 1011 10 16.09344 0 0
1:35 pm 13:35 Cloudy 75 24 66 19 74 74 N 8 13 29.85 1011 10 16.09344 0 0
1:55 pm 13:55 Mostly Cloudy 75 24 64 18 69 69 N 15 24 29.85 1011 10 16.09344 0 0
2:15 pm 14:15 Mostly Cloudy 75 24 64 18 69 69 N 15 24 29.85 1011 10 16.09344 0 0
2:35 pm 14:35 Mostly Cloudy 75 24 64 18 69 69 N 13 20 29.85 1011 10 16.09344 0 0
2:55 pm 14:55 Mostly Cloudy 75 24 64 18 69 69 N 12 19 29.85 1011 10 16.09344 0 0
3:15 pm 15:15 Partly Cloudy 75 24 64 18 69 69 N 12 19 29.85 1011 10 16.09344 0 0
3:35 pm 15:35 Partly Cloudy 77 25 64 18 65 65 NNW 14 22 29.85 1011 10 16.09344 0 0
3:55 pm 15:55 Partly Cloudy 77 25 63 17 61 61 N 13 20 29.85 1011 10 16.09344 0 0
4:15 pm 16:15 Partly Cloudy 77 25 64 18 65 65 NNW 13 20 29.85 1011 10 16.09344 0 0
4:35 pm 16:35 Partly Cloudy 77 25 64 18 65 65 N 12 19 29.85 1011 10 16.09344 0 0
4:55 pm 16:55 Partly Cloudy 77 25 63 17 61 61 N 12 19 29.85 1011 10 16.09344 0 0
5:15 pm 17:15 Partly Cloudy 77 25 63 17 61 61 N 14 22 29.85 1011 10 16.09344 0 0
5:35 pm 17:35 Partly Cloudy 77 25 61 16 57 57 N 12 19 29.85 1011 10 16.09344 0 0
5:55 pm 17:55 Partly Cloudy 77 25 63 17 61 61 N 10 17 29.85 1011 10 16.09344 0 0
6:15 pm 18:15 Sunny 75 24 61 16 61 61 N 8 13 29.85 1011 10 16.09344 0 0
6:35 pm 18:35 Sunny 75 24 61 16 61 61 N 8 13 29.88 1012 10 16.09344 0 0
6:55 pm 18:55 Sunny 73 23 63 17 69 69 N 8 13 29.91 1013 10 16.09344 0 0
7:15 pm 19:15 Sunny 73 23 61 16 65 65 NNE 8 13 29.91 1013 10 16.09344 0 0
7:35 pm 19:35 Sunny 72 22 61 16 69 69 NNE 8 13 29.91 1013 10 16.09344 0 0
7:55 pm 19:55 Sunny 70 21 61 16 73 73 NNE 7 11 29.91 1013 10 16.09344 0 0
8:15 pm 20:15 Sunny 68 20 61 16 78 78 NNE 6 9 29.91 1013 10 16.09344 0 0
8:35 pm 20:35 Clear 66 19 61 16 83 83 NE 6 9 29.94 1014 10 16.09344 0 0
8:55 pm 20:55 Clear 64 18 61 16 88 88 NE 5 7 29.97 1015 10 16.09344 0 0
9:15 pm 21:15 Clear 64 18 61 16 88 88 Calm 29.97 1015 10 16.09344 0 0
9:35 pm 21:35 Clear 64 18 61 16 88 88 Calm 29.97 1015 10 16.09344 0 0
9:55 pm 21:55 Clear 63 17 61 16 94 94 Calm 30 1016 10 16.09344 0 0
10:15 pm 22:15 Clear 63 17 59 15 88 88 Calm 30 1016 10 16.09344 0 0
10:35 pm 22:35 Clear 61 16 59 15 94 94 Calm 30.03 1017 10 16.09344 0 0
10:55 pm 22:55 Clear 61 16 59 15 94 94 Calm 30.03 1017 10 16.09344 0 0
11:15 pm 23:15 Clear 61 16 57 14 88 88 Calm 30.03 1017 10 16.09344 0 0
11:35 pm 23:35 Clear 61 16 59 15 94 94 Calm 30.03 1017 10 16.09344 0 0
11:55 pm 23:55 Clear 59 15 57 14 94 94 W 3 6 30.03 1017 10 16.09344 0 0

Powered by AerisWeather